Theta_e
308 309 312 312 312 313 312 312 312 313 314 316 317 317 315 315 313 306 301 299 310 312 309 310 311 311 310 310 312 308 309 307 306 312 312 311 313 312 313 309 307 309 309 308 306 310 316 308 305 311 310 307 308 304
306 307 308 310 313 313 313 312 312 312 312 313 316 316 316 314 314 310 304 300 300 309 311 310 312 312 311 309 310 304 311 307 309 312 309 311 313 310 312 314 305 310 310 310 310 312 309 304 309 306 305 307 305 304
306 306 307 312 309 308 311 312 312 312 312 312 313 313 315 314 312 312 307 301 302 306 305 307 310 311 310 311 311 309 304 306 307 307 309 309 311 309 313 312 310 306 305 308 308 307 308 306 306 304 303 304 304 303
304 305 307 307 307 308 308 310 311 312 312 312 312 312 312 314 312 309 307 302 301 303 303 304 303 305 306 307 310 310 307 305 306 308 306 304 308 309 311 311 311 310 306 308 307 308 308 308 307 307 304 302 303 302
304 304 305 305 306 306 307 308 308 311 312 312 311 312 312 313 313 309 305 302 303 305 304 304 303 304 305 305 306 309 306 306 307 308 304 306 306 308 305 305 310 307 309 311 313 309 311 312 310 307 306 306 304 303
303 305 305 304 305 305 307 308 309 311 312 312 312 311 312 313 313 305 300 302 302 304 302 307 302 302 303 304 306 307 307 306 307 308 308 305 304 310 305 309 312 309 308 309 312 308 307 307 307 307 306 306 304 302
303 304 304 304 303 304 305 306 307 308 308 310 310 311 311 313 310 307 302 303 302 302 299 302 303 301 300 303 306 306 306 306 308 308 308 307 308 308 299 313 312 308 309 310 309 308 308 307 310 305 304 305 306 303
303 305 304 303 302 302 302 304 307 307 307 308 308 312 312 312 310 304 304 303 302 297 297 302 303 301 299 301 306 303 304 305 306 311 307 312 308 308 310 313 309 310 310 307 307 308 309 310 310 309 303 303 305 305
303 304 304 302 301 301 301 303 305 307 307 308 308 309 310 300 297 299 302 301 300 298 299 300 304 304 297 297 299 302 304 308 305 309 310 311 311 313 313 312 311 307 308 309 307 307 307 308 309 309 303 303 305 305
303 304 303 302 301 302 304 303 305 307 307 307 308 298 296 295 299 300 298 294 294 293 294 300 299 300 298 298 301 303 302 306 305 305 307 309 310 310 310 310 306 306 307 308 309 309 309 309 310 309 306 306 306 305
304 303 301 301 303 302 303 304 306 307 307 304 293 292 295 297 297 294 296 299 297 297 296 298 299 298 297 303 303 301 303 303 307 306 309 308 308 309 308 308 309 309 307 306 307 309 309 309 309 306 304 303 301 300
302 302 301 301 302 302 303 304 306 306 301 299 294 293 293 293 296 297 297 297 297 299 297 300 300 298 298 300 303 300 304 303 307 305 307 308 307 307 305 306 307 307 308 308 308 308 308 304 304 303 303 300 298 298
301 300 301 301 301 302 304 305 306 302 297 297 294 294 295 295 296 298 298 298 298 295 296 299 299 298 298 299 302 302 305 306 303 306 307 304 302 301 300 302 303 305 305 306 306 306 306 306 303 301 299 298 297 297
299 300 301 301 301 303 304 305 300 300 298 295 296 295 296 294 293 295 294 294 295 294 297 300 297 300 300 303 302 304 304 303 305 306 304 304 299 301 301 298 298 300 300 301 301 302 304 303 299 299 299 298 297 298
301 301 301 302 302 303 304 301 301 300 294 295 295 297 294 292 291 291 291 292 293 296 299 300 300 299 301 303 302 303 304 305 302 303 300 298 298 298 297 297 297 297 297 298 299 299 298 297 297 297 298 299 300 300
300 301 302 302 303 303 302 299 297 295 292 295 295 295 293 293 291 293 293 291 295 298 300 300 301 302 303 303 302 303 305 304 302 299 298 297 297 297 296 296 295 296 296 297 296 297 297 297 298 299 300 300 301 300
301 302 303 303 303 301 299 296 294 294 296 295 296 290 292 293 295 293 293 294 297 300 300 301 302 302 301 302 303 302 303 301 300 299 298 298 298 297 297 296 296 297 296 296 297 297 298 299 299 299 298 299 300 300
302 302 303 303 301 297 294 293 294 295 295 291 296 295 291 293 293 292 293 296 299 299 299 300 298 301 301 300 299 297 297 298 299 299 299 297 297 296 297 296 296 297 297 297 298 298 299 299 299 299 298 299 299 298
301 302 303 300 298 295 293 291 291 294 290 291 288 288 292 292 292 293 295 298 297 298 298 299 301 299 299 296 297 298 298 298 299 297 297 296 296 296 296 296 297 297 296 296 296 297 298 298 298 297 296 296 295 296
302 303 301 298 298 292 292 289 286 289 291 290 289 292 291 289 289 292 295 296 297 297 299 300 299 297 297 297 297 298 297 297 298 299 298 297 296 295 295 295 296 296 295 294 295 295 294 294 295 295 295 296 295 295
301 299 295 295 289 287 286 284 287 283 286 290 291 292 291 293 294 290 292 297 298 299 297 296 292 295 296 296 296 297 298 298 299 298 298 298 296 293 294 294 295 294 293 292 293 293 294 293 294 295 296 296 297 297
292 293 291 290 287 286 285 279 284 283 285 291 292 287 293 295 296 296 295 298 298 298 293 294 295 296 296 295 296 294 296 297 297 296 298 297 294 293 292 292 292 293 293 293 293 294 294 295 296 296 297 297 297 295
294 293 290 288 288 287 287 281 284 282 291 292 292 291 291 292 294 296 298 297 294 292 295 295 294 294 295 296 297 296 296 294 295 295 297 296 294 294 293 293 294 293 293 293 295 295 295 296 296 297 297 295 295 294
293 289 289 288 285 282 275 276 277 280 281 291 290 283 285 288 292 296 297 293 293 291 293 294 294 295 294 293 295 297 297 295 295 295 297 293 293 293 293 293 294 294 295 295 295 295 295 296 297 296 295 293 293 291
294 288 289 285 277 278 278 285 280 284 285 282 283 285 282 287 295 295 294 291 290 291 293 292 293 295 296 296 296 296 297 295 295 296 296 296 295 293 291 292 293 294 295 294 294 294 295 296 296 295 293 291 290 290
289 284 285 278 278 283 283 284 284 285 285 283 284 280 284 291 291 288 288 289 289 290 290 291 293 293 294 295 296 296 296 295 296 296 296 296 295 295 294 292 291 291 293 294 294 294 294 294 294 293 292 292 292 290
285 283 280 277 283 284 285 286 285 284 280 282 280 286 285 283 285 288 287 287 288 288 289 290 291 292 293 294 295 295 296 296 295 296 297 297 297 297 296 295 293 294 295 294 294 294 294 294 293 293 292 291 291 291
282 280 287 283 285 287 284 283 283 285 286 285 286 285 285 287 289 290 289 288 289 290 290 290 290 290 290 291 293 294 295 295 295 295 296 297 297 296 297 297 298 298 297 296 294 294 294 294 294 293 292 291 291 291
281 280 285 284 285 287 287 287 286 288 287 287 288 287 286 287 288 287 287 288 288 288 288 288 289 289 290 290 291 291 293 292 290 292 293 295 294 293 294 293 295 295 294 294 294 294 294 294 294 294 294 294 294 293
280 280 286 286 287 288 288 288 289 288 287 288 289 290 290 289 287 285 285 285 286 287 288 288 288 289 289 290 290 290 292 292 293 293 294 294 294 295 294 294 295 296 295 294 293 293 292 292 292 292 291 291 291 290
279 284 285 287 287 288 287 286 287 288 288 288 288 290 290 290 287 284 283 283 285 285 286 286 286 288 288 288 289 289 291 291 292 292 293 294 294 294 295 295 294 294 294 293 293 292 292 292 292 291 289 289 289 289
283 286 288 285 285 284 285 287 289 289 288 287 289 287 288 289 288 285 283 282 283 283 284 284 284 284 285 287 288 289 289 289 289 290 290 290 292 293 294 293 292 292 291 290 290 291 291 292 290 289 289 288 288 288
277 281 284 285 283 283 285 285 285 284 285 286 285 285 287 289 287 284 283 282 282 281 281 283 283 284 283 283 284 285 287 288 289 290 291 290 289 290 290 290 290 290 289 289 289 289 290 290 290 289 288 288 288 288
Wind_Speed
29 34 37 36 37 34 35 33 31 23 18 35 48 46 46 43 40 40 20 25 17 3 4 5 3 5 3 4 6 4 4 2 3 4 5 5 5 6 4 6 8 9 8 5 2 3 13 7 5 9 7 3 3 5
28 29 33 37 36 39 35 33 31 30 26 17 32 48 49 48 46 43 16 23 27 4 3 5 14 12 4 2 5 5 4 6 5 4 3 3 4 2 4 4 1 5 8 6 11 9 4 8 7 10 3 6 6 6
29 28 28 31 25 27 31 33 30 33 32 30 23 20 47 51 51 49 28 24 17 1 7 8 10 20 20 18 9 5 3 4 4 3 4 3 5 4 5 7 6 4 5 4 2 8 15 9 10 5 8 9 6 7
29 26 27 30 29 30 29 33 31 32 32 32 32 28 24 42 52 53 29 31 22 6 3 7 7 21 27 18 18 16 1 3 4 3 3 3 3 5 4 4 7 5 10 7 7 7 8 9 9 13 11 10 8 7
28 29 28 28 30 30 32 31 30 35 33 33 33 30 28 27 51 50 22 34 35 9 5 3 10 14 14 19 26 20 11 4 2 2 3 4 3 2 2 2 9 7 9 8 11 7 10 12 11 8 12 13 15 12
28 30 29 29 29 30 30 30 29 30 38 33 32 33 29 25 42 21 2 15 37 14 3 2 3 3 5 10 13 19 17 4 3 4 3 3 3 4 3 8 29 13 11 14 20 9 9 7 7 5 9 11 10 11
29 32 30 29 29 29 28 29 29 24 23 23 25 33 33 30 44 10 8 13 46 24 3 2 3 2 4 4 2 2 7 3 4 3 5 3 3 4 2 20 29 5 13 16 12 4 12 5 10 8 9 9 9 10
28 32 30 29 28 28 27 27 26 25 22 22 20 22 39 34 38 12 15 22 40 12 3 3 3 2 8 3 3 2 3 2 2 5 0 10 2 2 6 36 7 17 21 13 10 13 20 18 17 14 6 5 7 8
27 32 30 28 28 28 27 27 25 24 22 18 16 14 12 3 4 10 24 37 19 6 6 3 5 5 3 1 2 2 1 3 1 5 7 4 5 9 27 19 17 7 8 11 13 17 16 18 20 16 9 9 13 11
31 32 29 28 27 27 26 26 26 24 20 17 17 5 2 4 46 36 6 2 1 1 1 4 3 4 4 3 2 3 2 3 4 5 4 4 8 28 29 18 7 8 10 11 15 18 19 20 24 18 11 11 12 12
29 30 28 28 26 26 26 27 26 24 22 6 3 2 13 16 5 3 3 4 3 4 5 3 5 4 3 3 3 3 3 3 3 4 6 4 6 28 24 30 29 22 16 16 19 20 17 18 14 8 7 9 8 7
26 28 27 27 26 26 27 27 30 24 8 11 18 12 6 1 1 4 3 2 4 7 5 6 5 3 3 3 3 3 4 4 5 5 3 3 12 15 11 11 16 24 28 30 26 23 18 9 8 8 8 8 9 14
30 25 25 26 25 25 26 29 35 27 36 13 5 3 3 1 2 6 8 4 4 4 6 6 7 4 2 1 2 3 5 5 4 4 4 7 3 3 6 6 12 14 13 16 17 19 21 20 17 11 7 11 17 17
25 26 26 25 25 25 25 40 43 35 9 3 3 5 5 5 5 6 6 4 3 4 8 9 2 3 3 4 3 4 4 3 5 4 9 8 3 6 9 4 4 6 6 8 8 9 11 12 11 15 17 20 20 14
25 25 25 24 24 23 34 47 36 22 5 4 4 6 7 3 2 4 4 4 3 9 10 6 3 2 2 3 4 3 5 4 7 8 5 3 6 5 5 5 8 8 7 8 6 7 8 8 10 9 19 23 21 20
24 19 21 23 22 33 41 36 13 4 3 4 4 4 1 3 2 3 4 2 5 9 6 2 3 3 4 3 5 6 5 8 6 3 4 2 2 4 4 6 6 7 7 6 5 6 7 9 11 13 20 23 22 23
23 7 18 22 32 46 41 12 4 3 4 5 3 2 4 1 3 3 3 4 6 10 4 3 6 7 4 3 4 5 6 1 1 1 2 4 5 6 7 6 5 5 4 4 5 7 9 15 19 16 10 16 22 20
9 16 26 33 44 28 5 3 2 2 3 2 4 4 1 1 4 4 4 6 7 6 3 4 3 4 5 6 4 3 3 3 3 3 3 3 4 6 5 7 4 4 4 4 6 7 11 12 10 7 12 18 17 13
18 24 38 48 35 9 3 2 1 3 1 1 0 2 2 1 1 2 3 9 3 4 4 2 3 4 4 3 3 3 2 2 3 2 3 5 6 6 6 5 5 4 6 6 7 5 8 12 11 16 18 18 9 12
21 37 47 40 26 4 4 2 2 3 3 2 1 2 3 1 1 2 4 5 4 3 3 5 6 4 4 4 4 4 3 1 2 3 4 4 3 4 5 5 4 8 7 5 8 12 10 6 12 15 17 17 14 12
22 33 28 23 5 6 3 2 2 2 3 2 2 2 2 2 2 2 2 4 3 3 4 6 4 4 5 3 3 2 4 5 4 4 3 5 4 4 3 6 9 9 3 4 4 4 10 5 14 18 17 17 15 14
9 19 6 7 4 3 3 1 3 2 3 2 3 2 3 3 2 3 4 4 3 7 4 3 3 5 5 6 6 7 10 10 7 3 6 8 3 3 3 4 4 5 5 7 9 7 8 15 16 17 18 16 14 14
12 5 5 3 4 3 1 2 4 3 3 3 2 2 2 2 2 5 3 4 5 4 5 8 7 7 7 8 11 11 16 8 6 5 5 5 8 10 7 9 13 6 5 7 17 15 14 16 16 19 17 16 16 13
8 4 3 3 3 3 2 3 1 3 2 4 4 3 4 4 2 3 4 3 3 2 4 10 6 7 6 6 9 10 12 15 8 6 12 5 4 5 12 12 16 17 16 14 17 16 15 18 20 19 19 18 16 15
5 4 3 4 4 5 3 2 2 3 3 2 2 3 3 3 3 4 3 4 3 5 8 6 7 9 10 10 8 9 21 15 8 8 10 15 8 4 5 12 16 20 23 17 12 13 17 21 20 20 21 18 16 15
5 2 3 4 1 3 3 4 5 4 3 2 4 2 0 2 3 6 3 3 4 4 4 5 6 7 8 10 10 9 11 19 17 8 9 19 18 10 7 6 5 7 21 22 20 17 16 18 19 20 18 20 19 17
3 1 1 1 3 3 2 1 2 3 4 5 3 4 2 3 6 5 3 1 2 2 5 6 4 5 7 8 15 20 19 19 20 16 20 19 22 24 20 11 11 13 20 29 28 25 22 21 19 20 19 21 24 22
2 3 4 2 2 1 4 3 4 6 4 3 5 5 6 7 5 2 2 3 9 14 15 16 14 14 13 15 18 19 18 19 21 20 13 13 21 25 28 27 23 20 22 27 32 31 29 27 25 24 23 22 25 24
1 1 3 3 2 3 4 6 4 3 3 4 5 3 4 3 2 4 4 12 11 9 4 6 11 15 16 17 18 17 20 17 8 7 10 8 4 9 22 20 23 21 20 20 23 28 30 30 28 28 28 29 29 25
2 2 2 2 3 4 3 4 2 0 1 2 1 2 1 1 3 10 11 9 7 5 7 12 14 9 5 6 8 10 12 16 17 11 9 9 7 13 15 18 21 23 24 24 24 23 21 20 19 19 19 21 23 21
0 1 1 2 3 1 0 1 1 2 2 2 3 2 2 0 3 9 15 14 12 10 8 7 8 9 8 6 6 6 4 9 16 18 15 11 11 15 16 18 21 23 25 26 25 25 23 20 20 19 20 20 23 22
1 3 1 1 2 1 1 1 1 1 1 1 1 0 1 1 2 4 17 18 13 8 13 12 7 7 15 12 7 6 6 10 10 6 8 11 11 13 13 14 14 14 16 19 23 25 25 23 18 19 19 20 22 24
2 2 2 1 2 3 1 1 1 2 1 1 1 1 1 2 3 3 10 18 14 15 15 14 10 11 14 15 15 14 11 8 7 10 11 4 7 8 6 6 8 11 14 17 19 21 22 22 19 20 20 19 21 25
Wind_Direction
235 236 236 236 237 235 236 237 236 242 259 227 222 226 227 225 218 205 221 215 200 213 267 192 219 159 144 163 158 172 80 323 56 167 163 201 211 222 212 192 173 166 172 194 130 210 274 163 69 181 206 233 201 193
238 235 238 236 233 230 229 227 228 236 234 235 228 226 224 220 222 209 216 216 211 243 300 244 244 236 216 160 158 193 178 164 177 156 207 172 210 195 174 247 44 223 191 184 189 205 247 211 210 224 191 179 207 191
237 235 235 219 232 232 230 227 226 231 232 227 234 233 220 218 213 211 203 181 171 125 287 259 232 243 238 233 218 151 249 180 196 186 159 191 222 135 184 232 211 241 164 222 114 209 238 223 248 244 203 227 227 224
239 237 234 235 235 236 233 232 230 231 233 230 228 227 232 224 209 203 190 181 173 118 214 265 241 245 246 237 229 225 179 119 94 129 156 163 182 186 219 258 217 182 154 185 258 279 301 256 235 237 230 225 238 231
238 237 234 233 233 234 242 235 231 230 230 232 228 226 230 226 213 199 191 183 182 157 185 265 319 269 241 228 220 219 189 145 175 158 159 213 175 145 215 347 245 181 191 200 240 204 228 250 238 213 222 227 227 219
236 232 233 232 231 229 233 235 233 230 230 227 228 228 233 225 196 150 71 189 191 185 118 218 327 272 245 241 227 210 203 173 175 176 224 237 239 171 214 253 263 212 209 224 246 227 219 236 254 234 230 234 217 206
235 228 225 222 225 226 226 229 231 228 229 228 231 236 227 218 182 178 180 198 186 168 105 237 262 218 194 200 183 169 194 191 192 184 221 188 218 180 198 257 245 237 221 228 230 207 256 212 255 221 216 231 215 214
234 222 222 220 222 223 224 223 223 225 231 231 232 231 215 218 195 186 173 161 158 107 153 192 233 287 180 168 178 182 151 133 231 214 173 223 186 172 247 246 264 246 241 238 224 229 246 256 255 245 208 195 210 210
229 220 221 223 225 225 223 223 224 222 227 229 236 234 248 112 127 147 147 146 150 134 171 170 173 213 158 139 133 119 177 169 139 216 215 183 185 215 235 251 253 230 219 224 221 233 242 246 249 246 203 194 215 215
221 219 218 222 222 222 220 219 215 213 221 210 181 102 72 337 121 116 72 85 64 124 128 204 155 179 135 170 182 133 165 189 206 216 151 226 240 252 249 251 237 215 217 219 226 235 234 242 250 255 216 223 207 203
212 214 215 221 219 217 215 211 203 185 174 160 83 69 133 139 59 57 139 147 142 189 187 195 179 139 212 159 162 204 161 182 214 202 195 205 244 242 250 246 246 246 237 234 232 238 230 237 247 227 207 206 200 181
206 214 215 218 217 214 209 203 187 172 157 134 107 115 127 133 119 125 150 162 189 199 192 170 169 159 176 164 138 177 177 182 230 150 204 236 250 246 239 245 235 234 238 242 242 247 243 240 201 201 198 196 195 183
210 212 219 218 215 210 202 188 173 157 122 104 88 112 143 168 146 172 171 183 216 196 179 173 142 134 121 185 154 175 200 210 138 191 224 233 249 241 249 238 236 235 242 244 248 249 252 246 216 196 188 179 168 162
199 214 219 216 211 205 190 169 155 151 100 90 126 143 210 182 217 196 188 163 184 127 147 151 109 136 156 169 159 191 199 154 203 212 228 239 214 233 240 265 301 267 235 230 229 229 227 211 200 184 184 172 156 158
213 211 210 207 201 196 177 163 165 157 128 150 149 194 208 214 185 184 152 110 178 148 152 133 91 109 158 188 187 172 181 218 214 227 224 211 226 240 253 255 257 257 240 240 228 211 191 171 168 163 161 160 159 154
209 205 208 197 193 173 171 152 150 86 119 147 179 149 211 124 212 172 163 139 159 158 128 87 151 175 205 198 179 200 191 217 233 219 233 244 247 268 274 265 259 256 251 248 196 179 164 159 162 156 152 157 160 160
193 202 186 181 168 163 153 132 116 162 176 172 205 185 181 70 170 155 121 157 166 161 151 153 191 197 133 198 209 197 219 282 205 284 287 239 249 285 296 297 287 269 238 189 167 157 152 149 138 139 153 171 167 168
191 180 169 158 145 138 95 91 116 147 184 216 175 147 174 271 134 141 159 152 158 186 142 190 138 193 201 202 225 249 235 265 240 239 262 274 288 285 271 273 264 220 209 181 152 145 146 152 158 168 156 166 163 165
180 172 160 151 147 115 109 98 46 139 194 264 203 101 132 169 158 134 144 161 81 94 122 162 222 214 220 217 208 249 237 233 251 259 273 297 282 275 273 247 213 182 187 176 148 144 172 177 173 163 160 165 158 172
175 165 161 155 155 116 134 120 108 122 156 187 132 110 101 103 63 127 137 146 112 130 203 222 216 202 200 210 198 210 219 226 29 329 304 290 269 269 247 214 197 183 169 150 141 146 144 151 178 174 176 175 159 173
133 143 136 136 101 95 111 139 79 144 136 103 94 116 107 107 150 142 123 147 186 210 234 226 210 211 231 230 201 233 210 179 193 179 260 297 300 260 251 212 182 168 149 151 152 174 174 178 189 189 178 184 184 179
108 136 91 69 76 54 75 356 134 162 82 110 124 105 136 170 160 174 135 196 229 229 211 200 227 208 226 234 236 215 236 242 246 198 239 251 255 242 236 198 163 179 173 178 176 180 185 205 199 194 189 181 177 173
117 74 72 87 113 75 86 15 77 18 113 150 87 97 178 209 216 146 214 222 244 214 214 230 223 214 225 233 229 236 235 222 239 222 231 232 233 238 223 191 188 173 182 195 194 190 192 200 204 198 185 179 177 169
96 65 72 71 74 116 37 24 63 103 86 169 163 215 213 202 198 210 239 236 238 208 214 234 229 251 245 235 239 242 241 225 235 227 223 197 222 235 215 207 200 202 200 197 193 198 197 201 203 195 188 186 184 185
77 6 61 41 18 80 68 80 24 71 134 171 137 254 240 187 198 222 234 268 226 232 237 224 222 228 239 246 243 240 242 209 218 227 221 201 208 192 203 219 212 208 207 180 172 188 196 199 198 194 193 193 187 197
80 334 96 163 355 103 161 129 181 171 137 157 237 282 32 179 209 238 233 237 222 246 235 212 224 238 247 244 249 246 239 221 221 224 227 195 195 200 202 198 200 228 214 205 190 191 196 197 196 194 198 203 203 200
103 166 334 270 113 119 82 76 114 116 167 197 199 169 116 193 231 242 275 270 264 297 324 302 251 236 254 263 256 257 259 229 209 231 240 226 221 213 201 195 208 218 214 212 212 207 199 200 200 200 204 209 211 207
144 160 145 190 93 153 138 151 170 205 216 186 135 185 201 204 233 244 240 360 348 330 319 309 304 287 271 269 268 268 261 243 232 228 237 232 229 224 219 220 227 226 222 216 216 214 215 211 206 206 207 210 216 216
94 230 107 140 152 185 207 192 210 219 168 167 182 212 238 235 356 2 357 349 342 337 323 323 321 323 307 299 293 262 244 207 171 185 209 225 215 232 221 224 218 213 216 213 218 224 223 224 225 224 223 221 227 225
252 175 122 142 167 217 235 187 223 275 226 202 246 287 242 119 73 24 0 355 358 344 330 314 311 314 315 321 311 305 252 219 209 208 218 223 227 219 201 211 220 226 228 227 223 222 226 227 226 219 213 216 218 215
308 89 63 177 233 245 111 331 266 227 226 229 209 238 235 189 135 36 18 356 346 347 359 346 332 351 345 329 331 321 303 253 235 231 237 246 226 217 222 228 230 229 230 230 224 219 213 204 204 201 205 209 214 210
153 174 130 304 284 293 200 256 271 264 263 285 264 284 284 210 83 28 5 0 0 359 348 339 337 340 338 332 346 356 327 346 23 345 274 256 249 245 240 237 234 232 231 228 220 212 212 206 200 204 211 214 215 214
24 14 8 315 318 339 337 359 306 309 281 263 312 13 38 23 81 15 349 10 5 355 342 337 7 22 25 29 34 38 38 35 23 25 16 331 238 222 216 226 232 229 226 224 221 213 209 206 206 211 213 216 216 217